Terminal Aerodrome Forecast
Issued by NWS

Current Version | Previous Version | Text Only | Print | Product List | Glossary On
Versions: 1 2 3 4 5 6 7 8 9 10 11 12 13 14 15 16 17 18 19 20 21 22 23 24 25 26
601 FTUS41 KBOX 300533 AAB TAFHYA TAF AMD KHYA 300533Z 3006/3106 35005KT 3SM BR BKN003 FM300700 35005KT 1/4SM FG OVC002 FM301100 01005KT 1SM BR SCT003 FM301400 03005KT P6SM SCT020 FM302100 11005KT P6SM BKN250 FM310000 17005KT P6SM SCT003 FM310500 VRB03KT P6SM BKN015 AMD NOT SKED=

USA.gov is the U.S. government's official web portal to all federal, state and local government web resources and services.